EW6934 Weather Reports


time (UTC)temp
F
wind
direction
speed
knots
gust
knots
rain 1hr
in
rain 24hr
in
rain mn
in
humidity
%
barometer
mb
20260505153055 71 159 4.3 8.7 0.00 0.00 0.00 45 1017.8
20260505151552 70 201 2.6 9.6 0.00 0.00 0.00 47 1018.1
20260505130111 63 0 0.0 3.5 0.00 0.00 0.00 56 1016.3
20260505124607 63 0 0.0 1.7 0.00 0.00 0.00 63 1016.2
20260505123105 61 0 0.0 0.9 0.00 0.00 0.00 63 1016.1
20260505121555 58 0 0.0 0.9 0.00 0.00 0.00 72 1016.0
20260505120101 54 0 0.0 0.9 0.00 0.00 0.00 77 1015.8
20260505114555 51 0 0.0 0.0 0.00 0.00 0.00 79 1015.6
20260505113056 51 0 0.0 0.0 0.00 0.00 0.00 78 1015.5
20260505111553 51 0 0.0 0.0 0.00 0.00 0.00 76 1015.4
20260505110104 53 25 0.0 0.9 0.00 0.00 0.00 73 1015.3
20260505101554 53 92 2.6 6.1 0.00 0.00 0.00 72 1015.5
20260505100056 50 0 0.0 0.9 0.00 0.00 0.00 79 1015.3
20260505094555 50 0 0.0 0.0 0.00 0.00 0.00 79 1015.3
20260505093054 50 0 0.0 0.0 0.00 0.00 0.00 77 1015.3
20260505091606 51 0 0.0 0.0 0.00 0.00 0.00 75 1015.4
20260505090054 52 0 0.0 0.0 0.00 0.00 0.00 73 1015.4
20260505084553 53 0 0.0 0.0 0.00 0.00 0.00 70 1015.4
20260505083056 54 0 0.0 0.0 0.00 0.00 0.00 67 1015.5
20260505081555 55 0 0.0 0.0 0.00 0.00 0.00 65 1015.5
20260505080106 56 0 0.0 0.9 0.00 0.00 0.00 61 1015.6
20260505074552 58 169 0.0 0.9 0.00 0.00 0.00 59 1015.4
20260505073058 59 0 0.0 1.7 0.00 0.00 0.00 56 1015.5
20260505071555 59 0 0.0 1.7 0.00 0.00 0.00 54 1015.5
20260505070056 60 137 0.0 3.5 0.00 0.00 0.00 53 1015.4
20260505064553 61 132 0.9 4.3 0.00 0.00 0.00 51 1015.4
20260505063112 62 128 0.9 6.1 0.00 0.00 0.00 50 1015.5
20260505061556 62 180 1.7 7.0 0.00 0.00 0.00 49 1015.7
20260505060100 63 119 3.5 10.4 0.00 0.00 0.00 47 1015.8
20260505054608 63 138 2.6 8.7 0.00 0.00 0.00 47 1015.8
20260505053103 63 108 1.7 7.0 0.00 0.00 0.00 48 1015.8
20260505051554 63 90 1.7 8.7 0.00 0.00 0.00 48 1015.8
20260505041605 64 87 1.7 7.8 0.00 0.00 0.00 49 1015.8
20260505040057 64 84 2.6 8.7 0.00 0.00 0.00 50 1015.8
20260505034557 65 131 3.5 7.8 0.00 0.00 0.00 49 1016.0
20260505033104 65 71 3.5 8.7 0.00 0.00 0.00 49 1016.1
20260505031604 65 91 2.6 7.0 0.00 0.00 0.00 48 1016.0
20260505030054 65 96 2.6 6.1 0.00 0.00 0.00 49 1016.1
20260505024603 66 92 1.7 5.2 0.00 0.00 0.00 49 1016.0
20260505023051 66 108 1.7 7.0 0.00 0.00 0.00 49 1015.9
20260505021555 66 109 0.9 5.2 0.00 0.00 0.00 48 1015.9
20260505020053 66 98 2.6 5.2 0.00 0.00 0.00 48 1015.7
20260505014607 67 108 2.6 7.0 0.00 0.00 0.00 49 1015.6
20260505013054 67 83 2.6 6.1 0.00 0.00 0.00 48 1015.5
20260505011603 67 105 1.7 4.3 0.00 0.00 0.00 51 1015.5
20260505010053 68 70 2.6 6.1 0.00 0.00 0.00 50 1015.3
20260505004553 68 90 2.6 4.3 0.00 0.00 0.00 50 1015.2
20260505003055 69 78 1.7 5.2 0.00 0.00 0.00 49 1015.0
20260505001554 70 85 2.6 6.1 0.00 0.00 0.00 48 1014.9
20260505000106 71 88 2.6 5.2 0.00 0.00 0.00 47 1014.9
20260504234555 72 81 1.7 6.1 0.00 0.00 0.00 45 1015.0
20260504233107 72 78 2.6 7.0 0.00 0.00 0.00 43 1014.8
20260504231552 73 119 1.7 7.8 0.00 0.00 0.00 41 1014.9
20260504230052 73 105 1.7 6.1 0.00 0.00 0.00 40 1014.8
20260504224557 74 110 1.7 7.0 0.00 0.00 0.00 38 1014.7
20260504223122 74 128 1.7 7.0 0.00 0.00 0.00 38 1014.7
20260504221549 74 202 1.7 8.7 0.00 0.00 0.00 36 1014.8
20260504220054 74 70 4.3 9.6 0.00 0.00 0.00 35 1014.7
20260504214552 74 94 3.5 8.7 0.00 0.00 0.00 37 1014.7
20260504213103 74 130 3.5 8.7 0.00 0.00 0.00 37 1014.8
20260504211601 74 175 4.3 13.9 0.00 0.00 0.00 37 1014.8
20260504210100 75 160 3.5 9.6 0.00 0.00 0.00 37 1014.9
20260504204557 75 119 4.3 11.3 0.00 0.00 0.00 35 1014.9
20260504203109 75 144 4.3 9.6 0.00 0.00 0.00 37 1014.9
20260504201601 75 114 2.6 9.6 0.00 0.00 0.00 39 1014.9
20260504200115 75 71 1.7 9.6 0.00 0.00 0.00 40 1015.0
20260504194602 75 169 3.5 12.2 0.00 0.00 0.00 41 1015.0
20260504193059 75 68 4.3 9.6 0.00 0.00 0.00 40 1015.2
20260504191602 75 90 1.7 9.6 0.00 0.00 0.00 37 1015.3
20260504190055 75 118 1.7 8.7 0.00 0.00 0.00 37 1015.4
20260504184601 74 113 3.5 9.6 0.00 0.00 0.00 38 1015.6
20260504183100 73 90 1.7 6.1 0.00 0.00 0.00 40 1015.9
20260504181604 73 0 2.6 7.8 0.00 0.00 0.00 40 1016.2
20260504174611 72 0 0.9 7.0 0.00 0.00 0.00 43 1016.3
20260504173100 72 146 2.6 6.1 0.00 0.00 0.00 43 1016.5
20260504171554 71 101 2.6 7.0 0.00 0.00 0.00 45 1016.6